(348306) = 2005 AY28

Discovered at Socorro on 2005-01-15 by LINEAR.

Orbit

Orbit type: Aten
Potentially Hazardous Asteroid

Note: WebGL enabled browser required.

epoch2022-01-21.0
epoch JD2459600.5
perihelion date2021-08-08.62615
perihelion JD2459435.12615
argument of perihelion (°)155.92160
ascending node (°)117.49786
inclination (°)5.88375
eccentricity0.5701171
perihelion distance (AU)0.3751899
Tisserand w.r.t. Jupiter6.6
ΔV w.r.t. Earth (km/sec)12.2
semimajor axis (AU)0.8727723
mean anomaly (°)199.90298
mean daily motion (°/day)1.20879430
aphelion distance (AU)1.370
period (years)0.82
P-vector [x]0.06155183
P-vector [y]-0.93157429
P-vector [z]-0.35830254
Q-vector [x]0.99395331
Q-vector [y]0.08991434
Q-vector [z]-0.06302560
absolute magnitude21.55
phase slope0.15
uncertainty0
referenceMPO 698061
observations used232
oppositions8
arc length (days)6203
first opposition used2005
last opposition used2022
residual rms (arc-secs)0.70
perturbers coarse indicatorM-v
perturbers precise indicator003Ek
first observation date used2005-01-13.0
last observation date used2022-01-07.0
computer namePan
JD of orbit computation2456760.904339
perihelion JD uncertainty (days)5.4526E-06
argument of perihelion uncertainty (°)1.5587E-05
ascending node uncertainty (°)1.4821E-05
inclination uncertainty (°)5.3490E-06
eccentricity uncertainty 5.4033E-08
perihelion distance uncertainty (AU)4.7322E-08
Minimum Orbit Intersection Distances (in AU)
for orbit epoch: 2459600.5, reference: E2022-B04
Mercury0.03509
Venus0.0117
Earth0.03597
Mars0.22484
Jupiter3.74757
Saturn7.70784
Uranus17.3627
Neptune28.7232

Observations

250 total observations over interval: 2005 01 13.26203 – 2022 01 07.265743
These data are available for download (format description).

Date (UT) J2000 RA J2000 Dec Magn Location Ref
2005 01 13.26203 08 06 08.78 +18 46 39.0   691 – Steward Observatory, Kitt Peak-Spacewatch MPS 129124
2005 01 13.28800 08 05 59.94 +18 47 24.3   691 – Steward Observatory, Kitt Peak-Spacewatch MPS 129124
2005 01 15.30158 07 54 25.67 +19 46 27.3 19.8   704 – Lincoln Laboratory ETS, New Mexico MPS 124819
2005 01 15.31499 07 54 20.75 +19 46 51.4 19.9   704 – Lincoln Laboratory ETS, New Mexico MPS 124819
2005 01 15.32864 07 54 15.56 +19 47 16.2 19.5   704 – Lincoln Laboratory ETS, New Mexico MPS 124819
2005 01 15.34259 07 54 10.37 +19 47 40.4 19.1   704 – Lincoln Laboratory ETS, New Mexico MPS 124819
2005 01 16.12400 07 49 22.22 +20 10 55.7   J95 – Great Shefford MPS 124819
2005 01 16.15166 07 49 11.64 +20 11 44.6   J95 – Great Shefford MPS 124819
2005 01 16.15610 07 49 09.89 +20 11 53.4   J95 – Great Shefford MPS 124819
2005 01 16.16451 07 49 06.76 +20 12 08.6 18.9 R J95 – Great Shefford MPS 124819
2005 01 16.17361 07 49 06.28 +20 12 33.7 19.0 R 673 – Table Mountain Observatory, Wrightwood MPS 124819
2005 01 16.17593 07 49 05.36 +20 12 37.5   673 – Table Mountain Observatory, Wrightwood MPS 124819
2005 01 16.18079 07 49 03.47 +20 12 46.8   673 – Table Mountain Observatory, Wrightwood MPS 124819
2005 01 16.18594 07 49 01.40 +20 12 58.1 18.9 R G90 – Three Buttes Observatory, Tucson MPS 124819
2005 01 16.18602 07 49 01.36 +20 12 58.6 19.3 V 691 – Steward Observatory, Kitt Peak-Spacewatch MPS 124819
2005 01 16.18831 07 49 00.70 +20 13 00.2   673 – Table Mountain Observatory, Wrightwood MPS 124819
2005 01 16.19071 07 48 59.56 +20 13 07.0 19.1 R G90 – Three Buttes Observatory, Tucson MPS 124819
2005 01 16.19549 07 48 57.75 +20 13 15.9 19.2 R G90 – Three Buttes Observatory, Tucson MPS 124819
2005 01 16.21196 07 48 51.40 +20 13 46.5 20.0 V 691 – Steward Observatory, Kitt Peak-Spacewatch MPS 124819
2005 01 16.23903 07 48 40.91 +20 14 36.7 19.4 V 691 – Steward Observatory, Kitt Peak-Spacewatch MPS 124819
2005 01 16.28436 07 48 23.26 +20 15 59.7 18.9 R 854 – Sabino Canyon Observatory, Tucson MPS 124819
2005 01 16.28998 07 48 21.10 +20 16 09.9 18.9 R 854 – Sabino Canyon Observatory, Tucson MPS 124819
2005 01 16.29424 07 48 19.27 +20 16 16.0 18.9   704 – Lincoln Laboratory ETS, New Mexico MPS 124819
2005 01 16.29563 07 48 18.88 +20 16 20.0 18.9 R 854 – Sabino Canyon Observatory, Tucson MPS 124819
2005 01 16.30817 07 48 13.85 +20 16 42.4 19.4   704 – Lincoln Laboratory ETS, New Mexico MPS 124819
2005 01 16.32186 07 48 08.54 +20 17 06.5 19.6   704 – Lincoln Laboratory ETS, New Mexico MPS 124819
2005 01 16.34738 07 47 58.29 +20 17 49.1 19.7 R 734 – Farpoint Observatory, Eskridge MPS 124819
2005 01 16.35290 07 47 56.08 +20 17 58.7 19.2 R 734 – Farpoint Observatory, Eskridge MPS 124819
2005 01 16.39942 07 47 38.15 +20 19 25.4 18.3 R H06 – iTelescope Observatory, Mayhill MPS 124819
2005 01 16.40668 07 47 35.35 +20 19 38.5 18.5 R H06 – iTelescope Observatory, Mayhill MPS 124819
2005 01 16.41408 07 47 32.51 +20 19 51.9 18.0 R H06 – iTelescope Observatory, Mayhill MPS 124819
2005 01 16.78769 07 45 12.60 +20 31 04.3 19.2 V 104 – San Marcello Pistoiese MPS 124819
2005 01 16.79293 07 45 10.60 +20 31 14.3 19.4 V 104 – San Marcello Pistoiese MPS 124819
2005 01 16.79676 07 45 09.08 +20 31 20.3 19.2 V 104 – San Marcello Pistoiese MPS 124819
2005 01 16.80005 07 45 07.91 +20 31 25.8 18.9 V 104 – San Marcello Pistoiese MPS 124819
2005 01 16.91427 07 44 22.50 +20 34 56.6 18.9 R 118 – Astronomical and Geophysical Observatory, Modra MPS 124819
2005 01 16.91663 07 44 21.63 +20 34 59.9 18.7 R 118 – Astronomical and Geophysical Observatory, Modra MPS 124819
2005 01 16.91781 07 44 21.16 +20 35 02.3 18.6 R 118 – Astronomical and Geophysical Observatory, Modra MPS 124819
2005 01 16.91826 07 44 21.10 +20 35 03.5   246 – Klet Observatory-KLENOT MPS 124819
2005 01 16.91956 07 44 20.60 +20 35 05.5   246 – Klet Observatory-KLENOT MPS 124819
2005 01 16.91957 07 44 20.93 +20 35 02.5   J95 – Great Shefford MPS 124819
2005 01 16.92015 07 44 20.36 +20 35 06.9   246 – Klet Observatory-KLENOT MPS 124819
2005 01 16.92072 07 44 20.14 +20 35 07.9   246 – Klet Observatory-KLENOT MPS 124819
2005 01 16.92135 07 44 19.88 +20 35 08.5   246 – Klet Observatory-KLENOT MPS 124819
2005 01 16.92269 07 44 19.38 +20 35 11.4   246 – Klet Observatory-KLENOT MPS 124819
2005 01 16.92745 07 44 17.79 +20 35 17.1   J95 – Great Shefford MPS 124819
2005 01 16.93489 07 44 14.83 +20 35 31.1 18.9 R J95 – Great Shefford MPS 124819
2005 01 17.16748 07 42 45.34 +20 42 41.9 19.0 R 673 – Table Mountain Observatory, Wrightwood MPS 124819
2005 01 17.17269 07 42 43.29 +20 42 51.6   673 – Table Mountain Observatory, Wrightwood MPS 124819
2005 01 17.17488 07 42 42.43 +20 42 55.6   673 – Table Mountain Observatory, Wrightwood MPS 124819
2005 01 17.17975 07 42 40.45 +20 43 05.1   673 – Table Mountain Observatory, Wrightwood MPS 124819
2005 01 17.25629 07 42 09.28 +20 45 29.0 20.2 V 291 – LPL/Spacewatch II MPS 124819
2005 01 17.26177 07 42 07.24 +20 45 39.6 20.2 V 291 – LPL/Spacewatch II MPS 124819
2005 01 17.26680 07 42 05.22 +20 45 48.6 20.1 V 291 – LPL/Spacewatch II MPS 124819
2005 01 17.38412 07 41 17.57 +20 49 21.3 20.7 V 291 – LPL/Spacewatch II MPS 124819
2005 01 17.38963 07 41 15.24 +20 49 31.8 20.1 V 291 – LPL/Spacewatch II MPS 124819
2005 01 17.39481 07 41 13.22 +20 49 40.6 20.2 V 291 – LPL/Spacewatch II MPS 124819
2005 01 17.75044 07 38 54.69 +21 00 19.8 19.6 V 104 – San Marcello Pistoiese MPS 124819
2005 01 17.75274 07 38 53.80 +21 00 22.1 20.4 V 104 – San Marcello Pistoiese MPS 124819
2005 01 17.75516 07 38 52.64 +21 00 28.7 20.6 V 104 – San Marcello Pistoiese MPS 124819
2005 01 17.75919 07 38 51.16 +21 00 35.8 20.3 V 104 – San Marcello Pistoiese MPS 124819
2005 01 19.20105 07 28 56.74 +21 44 44.2 19.8 V 291 – LPL/Spacewatch II MPS 124819
2005 01 19.20541 07 28 54.89 +21 44 52.2 20.2 V 291 – LPL/Spacewatch II MPS 124819
2005 01 19.21020 07 28 52.70 +21 45 01.5 20.2 V 291 – LPL/Spacewatch II MPS 124819
2005 01 31.17918 05 52 20.50 +26 40 00.8 20.0 R 448 – Desert Moon Observatory, Las Cruces MPS 125764
2005 01 31.19641 05 52 11.51 +26 40 16.1 20.2 R 448 – Desert Moon Observatory, Las Cruces MPS 125765
2005 01 31.21018 05 52 04.31 +26 40 28.4 20.1 R 448 – Desert Moon Observatory, Las Cruces MPS 125765
2008 12 01.37776 07 58 52.26 +11 42 54.7   291 – LPL/Spacewatch II MPS 267522
2008 12 01.38508 07 58 51.26 +11 42 56.6   291 – LPL/Spacewatch II MPS 267522
2008 12 01.39218 07 58 50.31 +11 42 58.4 22.2 V 291 – LPL/Spacewatch II MPS 267522
2008 12 21.38011 06 52 42.03 +14 27 20.8 21.2 V 291 – LPL/Spacewatch II MPS 269260
2008 12 21.38413 06 52 40.99 +14 27 22.7 21.7 V 291 – LPL/Spacewatch II MPS 269260
2008 12 21.38936 06 52 39.45 +14 27 25.6   291 – LPL/Spacewatch II MPS 269260
2008 12 22.29155 06 48 35.46 +14 37 15.5 19.9 V 291 – LPL/Spacewatch II MPS 269260
2008 12 22.29535 06 48 34.34 +14 37 17.8 19.2 V 291 – LPL/Spacewatch II MPS 269260
2008 12 22.29918 06 48 33.18 +14 37 21.4 19.9 V 291 – LPL/Spacewatch II MPS 269260
2008 12 31.19410 06 06 10.16 +16 12 21.8 20.4 V 291 – LPL/Spacewatch II MPS 270140
2008 12 31.19796 06 06 09.04 +16 12 23.9 20.6 V 291 – LPL/Spacewatch II MPS 270140
2009 01 16.30933 04 58 23.91 +18 20 16.0 20.7 V 291 – LPL/Spacewatch II MPS 272537
2009 01 16.31319 04 58 23.22 +18 20 16.5 21.1 V 291 – LPL/Spacewatch II MPS 272537
2009 01 16.31704 04 58 22.44 +18 20 17.8 20.8 V 291 – LPL/Spacewatch II MPS 272537
2009 12 26.50763 12 30 14.71 -01 21 39.3   291 – LPL/Spacewatch II MPS 308626
2009 12 26.51546 12 30 16.74 -01 21 49.3   291 – LPL/Spacewatch II MPS 308626
2009 12 27.43139 12 34 37.44 -01 41 32.5   291 – LPL/Spacewatch II MPS 308626
2009 12 27.43526 12 34 38.56 -01 41 38.8   291 – LPL/Spacewatch II MPS 308626
2012 10 23.46503 08 25 35.46 +04 15 18.5 21.5 R 291 – LPL/Spacewatch II MPS 437870
2012 10 23.47291 08 25 34.44 +04 15 19.0 21.4 R 291 – LPL/Spacewatch II MPS 437870
2012 10 23.48115 08 25 33.36 +04 15 18.0 21.6 R 291 – LPL/Spacewatch II MPS 437870
2012 12 07.37242 05 19 29.359 +07 03 15.46 20.4 g F51 – Pan-STARRS 1, Haleakala MPS 445980
2012 12 07.38543 05 19 24.956 +07 03 22.54 20.5 g F51 – Pan-STARRS 1, Haleakala MPS 445980
